Weather History for Dansville, NY

Change the Weather History Date:

Saturday, February 15, 2014

  Actual Average Record
Temperature  
Mean Temperature 22 °F -  
Max Temperature 28 °F 33 °F 65 °F (1949)
Min Temperature 15 °F 17 °F -7 °F (1970)
Degree Days  
Heating Degree Days 44    
Moisture  
Dew Point 17 °F    
Average Humidity 75    
Maximum Humidity 88    
Minimum Humidity 60    
Precipitation  
Precipitation 0.01 in - - ()
Sea Level Pressure  
Sea Level Pressure 29.87 in    
Wind  
Wind Speed 3 mph (NNW)    
Max Wind Speed 17 mph    
Max Gust Speed 20 mph    
Visibility 6 miles    
Events Fog , Snow    
Averages and records for this station are not official NWS values.
T = Trace of Precipitation, MM = Missing Value Source: NWS Daily Summary

Daily Weather History Graph

Daily Weather History Graph

Search for Another Location

Airport:

Trip Planner

Search our weather history database for the weather conditions in past years. The results will help you decide how hot, cold, wet, or windy it might be!

Date:

Astronomy

Feb. 15, 2014 Rise Set
Actual Time 7:07 AM EST 5:42 PM EST
Civil Twilight 6:38 AM EST 6:11 PM EST
Nautical Twilight 6:05 AM EST 6:44 PM EST
Astronomical Twilight 5:33 AM EST 7:17 PM EST
Moon 6:43 PM EST (2/15) 7:03 AM EST (2/15)
Length of Visible Light 11h 33m
Length of Day
10h 35m
Full, 100% of the Moon is Illuminated
Feb 15
Full
Feb 22
Last Quarter
Mar 1
New
Mar 8
First Quarter
Mar 16
Full

Hourly Weather History & Observations

Time (EST) Temp. Windchill Dew Point Humidity Pressure Visibility Wind Dir Wind Speed Gust Speed Precip Events Conditions
12:54 AM 27.0 °F - 19.9 °F 75% 29.78 in 8.0 mi Calm Calm - N/A   Overcast
1:54 AM 26.1 °F - 19.9 °F 78% 29.78 in 8.0 mi Calm Calm - N/A   Overcast
2:54 AM 26.1 °F - 19.9 °F 78% 29.78 in 7.0 mi Calm Calm - N/A   Overcast
3:54 AM 25.0 °F - 19.9 °F 81% 29.77 in 6.0 mi Calm Calm - N/A   Haze
4:54 AM 24.1 °F - 19.9 °F 84% 29.78 in 5.0 mi Calm Calm - N/A   Overcast
5:54 AM 25.0 °F - 19.0 °F 78% 29.79 in 6.0 mi Calm Calm - N/A   Haze
6:54 AM 25.0 °F - 19.9 °F 81% 29.80 in 6.0 mi Calm Calm - N/A   Haze
7:54 AM 24.1 °F - 19.9 °F 84% 29.83 in 3.0 mi Calm Calm - N/A   Overcast
8:13 AM 24.8 °F - 19.4 °F 80% 29.79 in 4.0 mi Calm Calm - N/A   Haze
8:37 AM 24.8 °F - 19.4 °F 80% 29.79 in 2.0 mi Calm Calm - 0.00 in Snow Light Snow
8:50 AM 24.8 °F - 19.4 °F 80% 29.80 in 1.5 mi Calm Calm - 0.00 in Snow Light Snow
8:54 AM 25.0 °F - 19.9 °F 81% 29.85 in 1.2 mi Calm Calm - 0.00 in Snow Light Snow
9:18 AM 24.8 °F - 21.2 °F 86% 29.80 in 0.5 mi Calm Calm - 0.00 in Fog , Snow Snow
9:54 AM 25.0 °F 20.7 °F 21.9 °F 88% 29.87 in 0.5 mi NW 3.5 mph - 0.00 in Fog , Snow Light Snow
10:54 AM 26.1 °F - 23.0 °F 88% 29.88 in 1.0 mi Calm Calm - 0.01 in Snow Light Snow
11:08 AM 26.6 °F 22.6 °F 21.2 °F 80% 29.83 in 2.0 mi NNW 3.5 mph - 0.00 in   Haze
11:41 AM 26.6 °F 20.0 °F 21.2 °F 80% 29.83 in 1.2 mi NNW 5.8 mph - 0.00 in Snow Light Snow
11:54 AM 28.0 °F 20.8 °F 21.0 °F 75% 29.88 in 2.5 mi NNW 6.9 mph - 0.00 in Snow Light Snow
12:06 PM 28.4 °F 22.2 °F 21.2 °F 74% 29.83 in 3.0 mi NW 5.8 mph - 0.00 in Snow Light Snow
12:13 PM 28.4 °F 20.4 °F 21.2 °F 74% 29.83 in 4.0 mi NNW 8.1 mph - 0.00 in   Haze
12:41 PM 28.4 °F 18.5 °F 21.2 °F 74% 29.82 in 2.0 mi NNW 11.5 mph - 0.00 in Snow Light Snow
12:54 PM 27.0 °F 16.7 °F 21.0 °F 78% 29.87 in 5.0 mi NNW 11.5 mph - 0.00 in   Haze
1:54 PM 28.0 °F 15.7 °F 16.0 °F 61% 29.86 in 10.0 mi NW 17.3 mph - 0.00 in   Overcast
2:54 PM 28.0 °F 18.1 °F 16.0 °F 61% 29.88 in 8.0 mi WNW 11.5 mph - 0.00 in Snow Light Snow
3:54 PM 27.0 °F 15.6 °F 15.1 °F 61% 29.89 in 10.0 mi NW 13.8 mph - 0.00 in   Overcast
4:54 PM 25.0 °F 13.6 °F 14.0 °F 63% 29.92 in 10.0 mi NW 12.7 mph - N/A   Mostly Cloudy
5:54 PM 23.0 °F 11.7 °F 10.9 °F 60% 29.96 in 10.0 mi WNW 11.5 mph - N/A   Scattered Clouds
6:54 PM 19.0 °F 11.1 °F 10.0 °F 68% 29.98 in 10.0 mi NNW 5.8 mph - N/A   Clear
7:54 PM 17.1 °F 7.6 °F 9.0 °F 71% 30.01 in 10.0 mi North 6.9 mph - N/A   Mostly Cloudy
8:54 PM 16.0 °F - 8.1 °F 71% 30.02 in 10.0 mi Calm Calm - N/A   Mostly Cloudy
9:54 PM 16.0 °F 6.3 °F 8.1 °F 71% 30.03 in 10.0 mi NNW 6.9 mph - N/A   Overcast
10:54 PM 15.1 °F 3.3 °F 6.1 °F 68% 30.03 in 10.0 mi NNW 9.2 mph - N/A   Overcast
11:54 PM 15.1 °F 6.4 °F 6.1 °F 68% 30.02 in 10.0 mi Variable 5.8 mph 19.6 mph N/A   Overcast